Time,TemperatureF,DewpointF,PressureIn,WindDirection,WindDirectionDegrees,WindSpeedMPH,WindSpeedGustMPH,Humidity,HourlyPrecipIn,Conditions,Clouds,dailyrainin,SoftwareType,DateUTC
2013-03-19 03:00:00,52.2,23.2,29.93,ESE,118,4.0,4.0,32,0.00,,,0.00,Wunderground v.1.15,2013-03-19 10:00:00,
2013-03-19 03:05:00,52.5,22.7,29.92,ESE,118,5.0,5.0,31,0.00,,,0.00,Wunderground v.1.15,2013-03-19 10:05:00,
2013-03-19 03:15:00,51.9,23.7,29.92,ESE,121,4.0,6.0,33,0.00,,,0.00,Wunderground v.1.15,2013-03-19 10:15:00,
2013-03-19 09:15:00,65.2,14.7,29.96,South,188,5.0,5.0,14,0.00,,,0.00,Wunderground v.1.15,2013-03-19 16:15:00,
2013-03-19 09:20:00,65.8,15.2,29.96,South,188,3.0,5.0,14,0.00,,,0.00,Wunderground v.1.15,2013-03-19 16:20:00,
2013-03-19 09:25:00,66.8,16.0,29.96,South,186,2.0,4.0,14,0.00,,,0.00,Wunderground v.1.15,2013-03-19 16:25:00,
2013-03-19 09:30:00,66.0,22.5,29.96,SE,143,4.0,13.0,19,0.00,,,0.00,Wunderground v.1.15,2013-03-19 16:30:00,
2013-03-19 09:35:00,65.2,19.2,29.97,ESE,107,8.0,8.0,17,0.00,,,0.00,Wunderground v.1.15,2013-03-19 16:35:00,
2013-03-19 09:45:00,66.4,18.8,29.97,ENE,75,4.0,10.0,16,0.00,,,0.00,Wunderground v.1.15,2013-03-19 16:45:00,
2013-03-19 09:50:00,66.0,19.9,29.97,NW,316,6.0,10.0,17,0.00,,,0.00,Wunderground v.1.15,2013-03-19 16:50:00,
2013-03-19 09:55:00,66.0,19.9,29.97,WNW,294,7.0,10.0,17,0.00,,,0.00,Wunderground v.1.15,2013-03-19 16:55:00,
2013-03-19 10:00:00,66.6,19.0,29.97,NW,325,8.0,12.0,16,0.00,,,0.00,Wunderground v.1.15,2013-03-19 17:00:00,
2013-03-19 10:05:00,66.9,19.2,29.97,NNW,348,7.0,12.0,16,0.00,,,0.00,Wunderground v.1.15,2013-03-19 17:05:00,
2013-03-19 10:15:00,67.6,14.9,29.97,SSW,205,4.0,5.0,13,0.00,,,0.00,Wunderground v.1.15,2013-03-19 17:15:00,
2013-03-19 10:20:00,67.8,16.8,29.97,SSW,196,4.0,4.0,14,0.00,,,0.00,Wunderground v.1.15,2013-03-19 17:20:00,
2013-03-19 10:25:00,67.6,14.9,29.98,WSW,247,4.0,4.0,13,0.00,,,0.00,Wunderground v.1.15,2013-03-19 17:25:00,
2013-03-19 10:30:00,67.9,11.4,29.98,SW,227,9.0,13.0,11,0.00,,,0.00,Wunderground v.1.15,2013-03-19 17:30:00,
2013-03-19 10:40:00,67.8,13.3,29.98,SW,229,11.0,11.0,12,0.00,,,0.00,Wunderground v.1.15,2013-03-19 17:40:00,
2013-03-19 10:45:00,68.4,13.7,29.98,SW,219,9.0,11.0,12,0.00,,,0.00,Wunderground v.1.15,2013-03-19 17:45:00,
2013-03-19 10:50:00,68.3,11.7,29.98,NW,317,7.0,7.0,11,0.00,,,0.00,Wunderground v.1.15,2013-03-19 17:50:00,
2013-03-19 10:55:00,67.6,13.1,29.99,SW,236,6.0,9.0,12,0.00,,,0.00,Wunderground v.1.15,2013-03-19 17:55:00,
2013-03-19 11:05:00,66.9,16.1,29.98,NNW,344,7.0,10.0,14,0.00,,,0.00,Wunderground v.1.15,2013-03-19 18:05:00,
2013-03-19 11:15:00,66.8,16.0,29.98,NW,324,6.0,8.0,14,0.00,,,0.00,Wunderground v.1.15,2013-03-19 18:15:00,
2013-03-19 11:20:00,66.8,16.0,29.99,NW,317,6.0,7.0,14,0.00,,,0.00,Wunderground v.1.15,2013-03-19 18:20:00,
2013-03-19 11:25:00,67.9,13.3,29.98,SW,219,6.0,7.0,12,0.00,,,0.00,Wunderground v.1.15,2013-03-19 18:25:00,
2013-03-19 11:30:00,67.9,13.3,29.99,NW,311,6.0,8.0,12,0.00,,,0.00,Wunderground v.1.15,2013-03-19 18:30:00,
2013-03-19 11:40:00,67.8,11.3,29.99,West,271,9.0,9.0,11,0.00,,,0.00,Wunderground v.1.15,2013-03-19 18:40:00,
2013-03-19 11:45:00,68.3,13.7,29.99,WNW,291,7.0,9.0,12,0.00,,,0.00,Wunderground v.1.15,2013-03-19 18:45:00,
2013-03-19 11:50:00,68.6,13.9,29.98,NW,311,6.0,8.0,12,0.00,,,0.00,Wunderground v.1.15,2013-03-19 18:50:00,
2013-03-19 12:00:00,68.8,15.9,29.98,WNW,288,9.0,9.0,13,0.00,,,0.00,Wunderground v.1.15,2013-03-19 19:00:00,
2013-03-19 12:05:00,68.8,17.6,29.98,West,260,8.0,9.0,14,0.00,,,0.00,Wunderground v.1.15,2013-03-19 19:05:00,
2013-03-19 12:15:00,69.4,18.1,29.97,WNW,297,7.0,10.0,14,0.00,,,0.00,Wunderground v.1.15,2013-03-19 19:15:00,
2013-03-19 12:20:00,68.8,17.6,29.98,West,265,8.0,13.0,14,0.00,,,0.00,Wunderground v.1.15,2013-03-19 19:20:00,
2013-03-19 12:30:00,68.8,19.2,29.97,NW,310,8.0,8.0,15,0.00,,,0.00,Wunderground v.1.15,2013-03-19 19:30:00,
2013-03-19 12:35:00,69.1,17.8,29.97,NW,309,7.0,8.0,14,0.00,,,0.00,Wunderground v.1.15,2013-03-19 19:35:00,
2013-03-19 12:40:00,68.9,19.3,29.98,WNW,303,6.0,7.0,15,0.00,,,0.00,Wunderground v.1.15,2013-03-19 19:40:00,
2013-03-19 12:45:00,69.3,19.6,29.97,NW,308,6.0,10.0,15,0.00,,,0.00,Wunderground v.1.15,2013-03-19 19:45:00,
2013-03-19 12:50:00,69.8,21.5,29.97,NNW,331,7.0,7.0,16,0.00,,,0.00,Wunderground v.1.15,2013-03-19 19:50:00,
2013-03-19 12:55:00,70.1,20.3,29.97,WNW,299,6.0,7.0,15,0.00,,,0.00,Wunderground v.1.15,2013-03-19 19:55:00,
2013-03-19 13:00:00,70.6,19.0,29.97,NNW,327,7.0,16.0,14,0.00,,,0.00,Wunderground v.1.15,2013-03-19 20:00:00,
2013-03-19 13:05:00,70.3,20.4,29.96,WNW,300,9.0,16.0,15,0.00,,,0.00,Wunderground v.1.15,2013-03-19 20:05:00,
2013-03-19 13:15:00,69.9,20.1,29.95,NW,321,10.0,10.0,15,0.00,,,0.00,Wunderground v.1.15,2013-03-19 20:15:00,
2013-03-19 13:20:00,70.3,20.4,29.95,NW,321,10.0,10.0,15,0.00,,,0.00,Wunderground v.1.15,2013-03-19 20:20:00,
2013-03-19 13:25:00,70.8,20.8,29.94,WNW,297,10.0,10.0,15,0.00,,,0.00,Wunderground v.1.15,2013-03-19 20:25:00,
2013-03-19 13:30:00,70.9,20.9,29.94,NW,305,9.0,9.0,15,0.00,,,0.00,Wunderground v.1.15,2013-03-19 20:30:00,
2013-03-19 13:35:00,70.9,20.9,29.95,West,279,8.0,9.0,15,0.00,,,0.00,Wunderground v.1.15,2013-03-19 20:35:00,
2013-03-19 13:40:00,70.8,22.3,29.94,WNW,302,8.0,11.0,16,0.00,,,0.00,Wunderground v.1.15,2013-03-19 20:40:00,
2013-03-19 13:45:00,71.3,22.7,29.94,NW,323,7.0,11.0,16,0.00,,,0.00,Wunderground v.1.15,2013-03-19 20:45:00,
2013-03-19 13:50:00,71.3,21.2,29.94,NNW,346,6.0,7.0,15,0.00,,,0.00,Wunderground v.1.15,2013-03-19 20:50:00,
2013-03-19 13:55:00,71.5,21.4,29.93,WNW,302,8.0,12.0,15,0.00,,,0.00,Wunderground v.1.15,2013-03-19 20:55:00,
2013-03-19 14:05:00,71.1,22.6,29.93,WNW,296,10.0,13.0,16,0.00,,,0.00,Wunderground v.1.15,2013-03-19 21:05:00,
2013-03-19 14:15:00,70.9,20.9,29.93,West,281,9.0,10.0,15,0.00,,,0.00,Wunderground v.1.15,2013-03-19 21:15:00,
2013-03-19 14:20:00,71.5,21.4,29.93,West,280,7.0,7.0,15,0.00,,,0.00,Wunderground v.1.15,2013-03-19 21:20:00,
2013-03-19 14:25:00,71.6,21.5,29.93,WNW,301,8.0,14.0,15,0.00,,,0.00,Wunderground v.1.15,2013-03-19 21:25:00,
2013-03-19 14:30:00,71.3,21.2,29.93,NW,314,8.0,10.0,15,0.00,,,0.00,Wunderground v.1.15,2013-03-19 21:30:00,
2013-03-19 14:40:00,70.4,22.0,29.93,WNW,288,7.0,7.0,16,0.00,,,0.00,Wunderground v.1.15,2013-03-19 21:40:00,
2013-03-19 14:45:00,70.8,22.3,29.93,WNW,294,8.0,8.0,16,0.00,,,0.00,Wunderground v.1.15,2013-03-19 21:45:00,
2013-03-19 14:50:00,70.9,20.9,29.93,WNW,296,7.0,7.0,15,0.00,,,0.00,Wunderground v.1.15,2013-03-19 21:50:00,
2013-03-19 14:55:00,71.3,21.2,29.93,West,270,8.0,8.0,15,0.00,,,0.00,Wunderground v.1.15,2013-03-19 21:55:00,
2013-03-19 15:00:00,71.8,21.6,29.93,SW,222,8.0,9.0,15,0.00,,,0.00,Wunderground v.1.15,2013-03-19 22:00:00,
2013-03-19 15:05:00,72.0,21.8,29.93,SW,217,7.0,9.0,15,0.00,,,0.00,Wunderground v.1.15,2013-03-19 22:05:00,
2013-03-19 15:15:00,71.5,21.4,29.93,WNW,287,7.0,10.0,15,0.00,,,0.00,Wunderground v.1.15,2013-03-19 22:15:00,
2013-03-19 15:20:00,71.6,21.5,29.93,WNW,288,9.0,9.0,15,0.00,,,0.00,Wunderground v.1.15,2013-03-19 22:20:00,
2013-03-19 15:25:00,71.8,23.2,29.93,West,265,9.0,9.0,16,0.00,,,0.00,Wunderground v.1.15,2013-03-19 22:25:00,
2013-03-19 15:30:00,71.8,21.6,29.92,West,275,8.0,8.0,15,0.00,,,0.00,Wunderground v.1.15,2013-03-19 22:30:00,
2013-03-19 15:35:00,71.8,21.6,29.93,WNW,302,6.0,12.0,15,0.00,,,0.00,Wunderground v.1.15,2013-03-19 22:35:00,
2013-03-19 15:45:00,71.1,22.6,29.93,WSW,254,7.0,9.0,16,0.00,,,0.00,Wunderground v.1.15,2013-03-19 22:45:00,
2013-03-19 15:50:00,70.9,22.4,29.93,WSW,254,8.0,11.0,16,0.00,,,0.00,Wunderground v.1.15,2013-03-19 22:50:00,
2013-03-19 15:55:00,71.1,22.6,29.93,WSW,242,8.0,11.0,16,0.00,,,0.00,Wunderground v.1.15,2013-03-19 22:55:00,
2013-03-19 16:00:00,71.3,22.7,29.93,West,259,8.0,11.0,16,0.00,,,0.00,Wunderground v.1.15,2013-03-19 23:00:00,
2013-03-19 16:05:00,71.1,21.1,29.93,SSW,197,9.0,11.0,15,0.00,,,0.00,Wunderground v.1.15,2013-03-19 23:05:00,
2013-03-19 16:15:00,70.9,22.4,29.93,WSW,247,10.0,10.0,16,0.00,,,0.00,Wunderground v.1.15,2013-03-19 23:15:00,
2013-03-19 16:20:00,70.9,22.4,29.93,WNW,294,9.0,9.0,16,0.00,,,0.00,Wunderground v.1.15,2013-03-19 23:20:00,
2013-03-19 16:25:00,70.8,22.3,29.93,West,275,7.0,10.0,16,0.00,,,0.00,Wunderground v.1.15,2013-03-19 23:25:00,
2013-03-19 16:30:00,70.6,22.2,29.93,SW,226,7.0,8.0,16,0.00,,,0.00,Wunderground v.1.15,2013-03-19 23:30:00,
2013-03-19 16:35:00,70.4,22.0,29.93,SW,236,7.0,11.0,16,0.00,,,0.00,Wunderground v.1.15,2013-03-19 23:35:00,
2013-03-19 16:40:00,70.6,22.2,29.93,WSW,246,7.0,7.0,16,0.00,,,0.00,Wunderground v.1.15,2013-03-19 23:40:00,
2013-03-19 16:50:00,71.1,22.6,29.93,SW,215,4.0,5.0,16,0.00,,,0.00,Wunderground v.1.15,2013-03-19 23:50:00,
2013-03-19 16:55:00,70.9,22.4,29.93,WNW,282,5.0,6.0,16,0.00,,,0.00,Wunderground v.1.15,2013-03-19 23:55:00,
2013-03-19 17:00:00,70.4,22.0,29.93,West,281,6.0,7.0,16,0.00,,,0.00,Wunderground v.1.15,2013-03-20 00:00:00,
2013-03-19 17:05:00,70.1,23.2,29.93,NW,316,6.0,7.0,17,0.00,,,0.00,Wunderground v.1.15,2013-03-20 00:05:00,
2013-03-19 17:15:00,69.6,21.4,29.94,NW,309,6.0,6.0,16,0.00,,,0.00,Wunderground v.1.15,2013-03-20 00:15:00,
2013-03-19 17:20:00,69.4,22.7,29.94,NW,308,6.0,6.0,17,0.00,,,0.00,Wunderground v.1.15,2013-03-20 00:20:00,
2013-03-19 17:25:00,69.4,22.7,29.94,West,276,5.0,6.0,17,0.00,,,0.00,Wunderground v.1.15,2013-03-20 00:25:00,
2013-03-19 17:30:00,69.4,22.7,29.94,WSW,257,6.0,6.0,17,0.00,,,0.00,Wunderground v.1.15,2013-03-20 00:30:00,
2013-03-19 17:35:00,69.3,22.6,29.94,WSW,257,5.0,6.0,17,0.00,,,0.00,Wunderground v.1.15,2013-03-20 00:35:00,
2013-03-19 17:40:00,68.6,23.4,29.94,WSW,257,4.0,5.0,18,0.00,,,0.00,Wunderground v.1.15,2013-03-20 00:40:00,
2013-03-19 17:45:00,67.9,21.4,29.94,West,259,4.0,5.0,17,0.00,,,0.00,Wunderground v.1.15,2013-03-20 00:45:00,
2013-03-19 17:55:00,67.1,22.1,29.94,West,259,4.0,5.0,18,0.00,,,0.00,Wunderground v.1.15,2013-03-20 00:55:00,
2013-03-19 18:00:00,66.8,23.2,29.95,West,259,3.0,5.0,19,0.00,,,0.00,Wunderground v.1.15,2013-03-20 01:00:00,
2013-03-19 18:05:00,66.4,22.8,29.95,West,261,5.0,6.0,19,0.00,,,0.00,Wunderground v.1.15,2013-03-20 01:05:00,
2013-03-19 18:15:00,65.8,22.3,29.96,West,261,4.0,5.0,19,0.00,,,0.00,Wunderground v.1.15,2013-03-20 01:15:00,
2013-03-19 18:25:00,65.3,23.2,29.96,West,261,4.0,4.0,20,0.00,,,0.00,Wunderground v.1.15,2013-03-20 01:25:00,
2013-03-19 18:30:00,64.8,22.7,29.96,West,261,4.0,5.0,20,0.00,,,0.00,Wunderground v.1.15,2013-03-20 01:30:00,
2013-03-19 18:35:00,64.3,23.5,29.96,West,261,4.0,5.0,21,0.00,,,0.00,Wunderground v.1.15,2013-03-20 01:35:00,
2013-03-19 18:40:00,64.0,23.2,29.97,West,262,4.0,4.0,21,0.00,,,0.00,Wunderground v.1.15,2013-03-20 01:40:00,
2013-03-19 18:45:00,63.9,22.0,29.97,West,262,4.0,5.0,20,0.00,,,0.00,Wunderground v.1.15,2013-03-20 01:45:00,
2013-03-19 18:50:00,63.4,23.8,29.97,West,263,4.0,5.0,22,0.00,,,0.00,Wunderground v.1.15,2013-03-20 01:50:00,
2013-03-19 19:00:00,62.0,23.7,29.97,West,263,4.0,4.0,23,0.00,,,0.00,Wunderground v.1.15,2013-03-20 02:00:00,
2013-03-19 19:05:00,61.2,23.1,29.97,West,263,4.0,4.0,23,0.00,,,0.00,Wunderground v.1.15,2013-03-20 02:05:00,
2013-03-19 19:15:00,60.5,23.5,29.97,West,263,3.0,4.0,24,0.00,,,0.00,Wunderground v.1.15,2013-03-20 02:15:00,
2013-03-19 19:20:00,60.1,23.1,29.97,West,263,3.0,3.0,24,0.00,,,0.00,Wunderground v.1.15,2013-03-20 02:20:00,
2013-03-19 19:25:00,59.8,22.9,29.98,West,263,2.0,3.0,24,0.00,,,0.00,Wunderground v.1.15,2013-03-20 02:25:00,
2013-03-19 19:35:00,60.2,23.2,29.98,West,263,4.0,6.0,24,0.00,,,0.00,Wunderground v.1.15,2013-03-20 02:35:00,
2013-03-19 19:40:00,60.2,24.2,29.98,West,263,4.0,4.0,25,0.00,,,0.00,Wunderground v.1.15,2013-03-20 02:40:00,
2013-03-19 19:45:00,60.1,23.1,29.98,West,263,4.0,4.0,24,0.00,,,0.00,Wunderground v.1.15,2013-03-20 02:45:00,
2013-03-19 19:50:00,60.2,23.2,29.99,West,267,4.0,4.0,24,0.00,,,0.00,Wunderground v.1.15,2013-03-20 02:50:00,
2013-03-19 19:55:00,60.7,23.7,30.00,West,267,5.0,5.0,24,0.00,,,0.00,Wunderground v.1.15,2013-03-20 02:55:00,
2013-03-19 20:00:00,60.4,23.4,30.00,West,267,4.0,4.0,24,0.00,,,0.00,Wunderground v.1.15,2013-03-20 03:00:00,
2013-03-19 20:05:00,59.8,23.9,30.00,West,267,4.0,4.0,25,0.00,,,0.00,Wunderground v.1.15,2013-03-20 03:05:00,
2013-03-19 20:15:00,59.2,24.3,30.00,West,267,4.0,6.0,26,0.00,,,0.00,Wunderground v.1.15,2013-03-20 03:15:00,
2013-03-19 20:20:00,59.2,23.4,30.00,West,281,5.0,5.0,25,0.00,,,0.00,Wunderground v.1.15,2013-03-20 03:20:00,
2013-03-19 20:25:00,59.5,23.6,30.00,WNW,290,6.0,6.0,25,0.00,,,0.00,Wunderground v.1.15,2013-03-20 03:25:00,
2013-03-19 20:30:00,59.8,23.9,30.00,WNW,295,6.0,6.0,25,0.00,,,0.00,Wunderground v.1.15,2013-03-20 03:30:00,
2013-03-19 20:40:00,59.6,23.7,30.00,WNW,297,5.0,5.0,25,0.00,,,0.00,Wunderground v.1.15,2013-03-20 03:40:00,
2013-03-19 20:45:00,59.6,23.7,30.01,WNW,298,4.0,5.0,25,0.00,,,0.00,Wunderground v.1.15,2013-03-20 03:45:00,
2013-03-19 20:50:00,59.2,24.3,30.01,WNW,299,5.0,5.0,26,0.00,,,0.00,Wunderground v.1.15,2013-03-20 03:50:00,
2013-03-19 20:55:00,58.9,24.0,30.01,WNW,299,5.0,6.0,26,0.00,,,0.00,Wunderground v.1.15,2013-03-20 03:55:00,
2013-03-19 21:00:00,59.0,24.1,30.01,WNW,298,5.0,5.0,26,0.00,,,0.00,Wunderground v.1.15,2013-03-20 04:00:00,
2013-03-19 21:05:00,59.2,23.4,30.01,WNW,298,5.0,6.0,25,0.00,,,0.00,Wunderground v.1.15,2013-03-20 04:05:00,
2013-03-19 21:15:00,59.3,23.4,30.02,WNW,298,4.0,5.0,25,0.00,,,0.00,Wunderground v.1.15,2013-03-20 04:15:00,
2013-03-19 21:25:00,59.9,23.0,30.02,WNW,298,5.0,5.0,24,0.00,,,0.00,Wunderground v.1.15,2013-03-20 04:25:00,
2013-03-19 21:30:00,60.2,23.2,30.02,WNW,296,5.0,6.0,24,0.00,,,0.00,Wunderground v.1.15,2013-03-20 04:30:00,
2013-03-19 21:35:00,60.2,23.2,30.02,WNW,295,6.0,6.0,24,0.00,,,0.00,Wunderground v.1.15,2013-03-20 04:35:00,